TimeIST,TemperatureF,Dew PointF,Humidity,Sea Level PressureIn,VisibilityMPH,Wind Direction,Wind SpeedMPH,Gust SpeedMPH,PrecipitationIn,Events,Conditions,WindDirDegrees,DateUTC
12:00 AM,57.2,55.4,94,30.27,6.2,WNW,13.8,-,N/A,,Mostly Cloudy,300,2013-06-28 23:00:00
12:30 AM,57.2,53.6,88,30.27,6.2,West,8.1,-,N/A,,Mostly Cloudy,280,2013-06-28 23:30:00
1:00 AM,57,54,88,30.29,19,WNW,11.2,,,,Mostly Cloudy,290,2013-06-29 00:00:00
1:00 AM,57.2,53.6,88,30.27,6.2,WNW,10.4,-,N/A,,Mostly Cloudy,290,2013-06-29 00:00:00
1:30 AM,57.2,53.6,88,30.27,6.2,WNW,10.4,-,N/A,,Mostly Cloudy,300,2013-06-29 00:30:00
2:00 AM,57.2,53.6,88,30.27,6.2,West,9.2,-,N/A,,Mostly Cloudy,280,2013-06-29 01:00:00
2:30 AM,57.2,53.6,88,30.27,6.2,WNW,11.5,-,N/A,,Mostly Cloudy,300,2013-06-29 01:30:00
3:00 AM,57.2,53.6,88,30.27,6.2,WNW,10.4,-,N/A,,Mostly Cloudy,300,2013-06-29 02:00:00
3:30 AM,57.2,53.6,88,30.27,6.2,WNW,8.1,-,N/A,,Mostly Cloudy,300,2013-06-29 02:30:00
4:00 AM,57.2,53.6,88,30.24,6.2,WNW,9.2,-,N/A,,Mostly Cloudy,300,2013-06-29 03:00:00
4:30 AM,57.2,53.6,88,30.24,6.2,WNW,6.9,-,N/A,,Mostly Cloudy,300,2013-06-29 03:30:00
5:00 AM,57.2,55.4,94,30.24,6.2,West,5.8,-,N/A,,Mostly Cloudy,280,2013-06-29 04:00:00
5:30 AM,57.2,55.4,94,30.24,6.2,West,4.6,-,N/A,,Mostly Cloudy,270,2013-06-29 04:30:00
6:00 AM,57.2,55.4,94,30.27,6.2,WSW,5.8,-,N/A,,Mostly Cloudy,250,2013-06-29 05:00:00
6:30 AM,57.2,55.4,94,30.27,6.2,WNW,10.4,-,N/A,,Mostly Cloudy,300,2013-06-29 05:30:00
7:00 AM,58,55,87,30.28,19,WNW,8.9,,,,Mostly Cloudy,290,2013-06-29 06:00:00
7:00 AM,57.2,55.4,94,30.27,6.2,WNW,9.2,-,N/A,,Mostly Cloudy,290,2013-06-29 06:00:00
7:30 AM,59.0,55.4,88,30.27,6.2,West,9.2,-,N/A,,Mostly Cloudy,270,2013-06-29 06:30:00
8:00 AM,59.0,55.4,88,30.27,6.2,West,5.8,-,N/A,,Mostly Cloudy,270,2013-06-29 07:00:00
8:30 AM,59.0,57.2,94,30.27,6.2,West,10.4,-,N/A,,Mostly Cloudy,260,2013-06-29 07:30:00
9:00 AM,60.8,57.2,88,30.30,6.2,West,9.2,-,N/A,,Mostly Cloudy,270,2013-06-29 08:00:00
9:30 AM,62.6,57.2,82,30.30,6.2,West,12.7,-,N/A,,Mostly Cloudy,270,2013-06-29 08:30:00
10:00 AM,64.4,57.2,77,30.30,6.2,West,12.7,-,N/A,,Mostly Cloudy,270,2013-06-29 09:00:00
10:30 AM,64.4,55.4,73,30.30,6.2,West,12.7,-,N/A,,Mostly Cloudy,280,2013-06-29 09:30:00
11:00 AM,66.2,57.2,73,30.30,6.2,WNW,13.8,-,N/A,,Mostly Cloudy,290,2013-06-29 10:00:00
11:30 AM,68.0,55.4,64,30.30,6.2,WNW,17.3,-,N/A,,Scattered Clouds,290,2013-06-29 10:30:00
12:00 PM,69.8,57.2,64,30.30,6.2,WNW,13.8,-,N/A,,Partly Cloudy,300,2013-06-29 11:00:00
12:30 PM,69.8,55.4,60,30.30,6.2,West,13.8,-,N/A,,Scattered Clouds,280,2013-06-29 11:30:00
1:00 PM,71,57,51,30.30,31,WNW,15.7,,,,Partly Cloudy,300,2013-06-29 12:00:00
1:00 PM,69.8,57.2,64,30.30,6.2,WNW,15.0,-,N/A,,Scattered Clouds,300,2013-06-29 12:00:00
1:30 PM,69.8,57.2,64,30.30,6.2,WNW,12.7,-,N/A,,Scattered Clouds,300,2013-06-29 12:30:00
2:00 PM,71.6,57.2,60,30.30,6.2,NW,13.8,-,N/A,,Scattered Clouds,310,2013-06-29 13:00:00
2:30 PM,71.6,57.2,60,30.30,6.2,NW,16.1,-,N/A,,Scattered Clouds,320,2013-06-29 13:30:00
3:00 PM,69.8,55.4,60,30.30,6.2,WNW,15.0,-,N/A,,Scattered Clouds,300,2013-06-29 14:00:00
3:30 PM,71.6,55.4,57,30.30,6.2,WNW,15.0,-,N/A,,Partly Cloudy,300,2013-06-29 14:30:00
4:00 PM,71.6,55.4,57,30.30,6.2,WNW,16.1,-,N/A,,Partly Cloudy,300,2013-06-29 15:00:00
4:30 PM,71.6,57.2,60,30.30,6.2,WNW,13.8,-,N/A,,Scattered Clouds,300,2013-06-29 15:30:00
5:00 PM,69.8,57.2,64,30.30,6.2,NW,11.5,-,N/A,,Scattered Clouds,310,2013-06-29 16:00:00
5:30 PM,69.8,57.2,64,29.77,6.2,NW,12.7,-,N/A,,Scattered Clouds,310,2013-06-29 16:30:00
6:00 PM,69.8,55.4,60,30.30,6.2,WNW,13.8,-,N/A,,Partly Cloudy,300,2013-06-29 17:00:00
6:30 PM,69.8,57.2,64,30.30,6.2,WNW,11.5,-,N/A,,Scattered Clouds,300,2013-06-29 17:30:00
7:00 PM,69,57,56,30.30,25,NW,11.2,,,,Partly Cloudy,310,2013-06-29 18:00:00
7:00 PM,69.8,57.2,64,30.30,6.2,NW,11.5,-,N/A,,Scattered Clouds,310,2013-06-29 18:00:00
7:30 PM,68.0,57.2,68,30.30,6.2,NW,10.4,-,N/A,,Scattered Clouds,320,2013-06-29 18:30:00
8:00 PM,66.2,55.4,68,30.30,6.2,NW,10.4,-,N/A,,Scattered Clouds,310,2013-06-29 19:00:00
8:30 PM,64.4,55.4,73,30.30,6.2,NW,9.2,-,N/A,,Scattered Clouds,320,2013-06-29 19:30:00
9:00 PM,64.4,55.4,73,30.30,6.2,WNW,11.5,-,N/A,,Scattered Clouds,300,2013-06-29 20:00:00
9:30 PM,62.6,53.6,72,30.30,6.2,WNW,11.5,-,N/A,,Scattered Clouds,300,2013-06-29 20:30:00
10:00 PM,60.8,53.6,77,30.33,6.2,WNW,4.6,-,N/A,,Scattered Clouds,290,2013-06-29 21:00:00
10:30 PM,59.0,53.6,82,30.33,6.2,WNW,5.8,-,N/A,,Scattered Clouds,290,2013-06-29 21:30:00
11:00 PM,59.0,53.6,82,30.33,6.2,West,10.4,-,N/A,,Scattered Clouds,270,2013-06-29 22:00:00
11:30 PM,55.4,51.8,88,30.33,6.2,West,5.8,-,N/A,,Scattered Clouds,260,2013-06-29 22:30:00